date,time,SUV Intensity [MED/Hr],UV Index,Daily total [MED],Since Last [MED]
10/04/2023,00:00:26,0.000,0.0,0.0,0.0
10/04/2023,00:01:26,-0.000,0.0,0.0,0.0
10/04/2023,00:02:25,-0.000,0.0,0.0,0.0
10/04/2023,00:03:25,-0.000,0.0,0.0,0.0
10/04/2023,00:04:25,-0.001,0.0,0.0,0.0
10/04/2023,00:05:25,0.000,0.0,0.0,0.0
10/04/2023,00:06:26,0.000,0.0,0.0,0.0
10/04/2023,00:07:26,-0.001,0.0,0.0,0.0
10/04/2023,00:08:25,-0.001,0.0,0.0,0.0
10/04/2023,00:09:25,0.001,0.0,0.0,0.0
10/04/2023,00:10:26,-0.000,0.0,0.0,0.0
10/04/2023,00:11:26,-0.000,0.0,0.0,0.0
10/04/2023,00:12:26,-0.000,0.0,0.0,0.0
10/04/2023,00:13:25,-0.001,0.0,0.0,0.0
10/04/2023,00:14:25,0.000,0.0,0.0,0.0
10/04/2023,00:15:26,0.000,0.0,0.0,0.0
10/04/2023,00:16:26,-0.001,0.0,0.0,0.0
10/04/2023,00:17:25,-0.001,0.0,0.0,0.0
10/04/2023,00:18:25,0.000,0.0,0.0,0.0
10/04/2023,00:19:25,-0.000,0.0,0.0,0.0
10/04/2023,00:20:25,-0.000,0.0,0.0,0.0
10/04/2023,00:21:26,0.001,0.0,0.0,0.0
10/04/2023,00:22:26,-0.000,0.0,0.0,0.0
10/04/2023,00:23:26,0.001,0.0,0.0,0.0
10/04/2023,00:24:26,0.000,0.0,0.0,0.0
10/04/2023,00:25:25,-0.000,0.0,0.0,0.0
10/04/2023,00:26:26,0.000,0.0,0.0,0.0
10/04/2023,00:27:25,-0.001,0.0,0.0,0.0
10/04/2023,00:28:26,0.000,0.0,0.0,0.0
10/04/2023,00:29:25,-0.001,0.0,0.0,0.0
10/04/2023,00:30:25,-0.000,0.0,0.0,0.0
10/04/2023,00:31:25,-0.000,0.0,0.0,0.0
10/04/2023,00:32:26,-0.001,0.0,0.0,0.0
10/04/2023,00:33:26,0.000,0.0,0.0,0.0
10/04/2023,00:34:26,0.000,0.0,0.0,0.0
10/04/2023,00:35:25,0.000,0.0,0.0,0.0
10/04/2023,00:36:26,0.000,0.0,0.0,0.0
10/04/2023,00:37:25,-0.001,0.0,0.0,0.0
10/04/2023,00:38:26,0.001,0.0,0.0,0.0
10/04/2023,00:39:25,0.000,0.0,0.0,0.0
10/04/2023,00:40:26,-0.001,0.0,0.0,0.0
10/04/2023,00:41:26,0.000,0.0,0.0,0.0
10/04/2023,00:42:26,0.001,0.0,0.0,0.0
10/04/2023,00:43:25,0.000,0.0,0.0,0.0
10/04/2023,00:44:26,0.000,0.0,0.0,0.0
10/04/2023,00:45:25,0.001,0.0,0.0,0.0
10/04/2023,00:46:26,-0.000,0.0,0.0,0.0
10/04/2023,00:47:25,-0.000,0.0,0.0,0.0
10/04/2023,00:48:26,-0.001,0.0,0.0,0.0
10/04/2023,00:49:26,-0.000,0.0,0.0,0.0
10/04/2023,00:50:26,0.000,0.0,0.0,0.0
10/04/2023,00:51:26,0.001,0.0,0.0,0.0
10/04/2023,00:52:25,-0.001,0.0,0.0,0.0
10/04/2023,00:53:26,0.000,0.0,0.0,0.0
10/04/2023,00:54:25,0.000,0.0,0.0,0.0
10/04/2023,00:55:26,0.000,0.0,0.0,0.0
10/04/2023,00:56:26,-0.001,0.0,0.0,0.0
10/04/2023,00:57:26,0.001,0.0,0.0,0.0
10/04/2023,00:58:25,0.001,0.0,0.0,0.0
10/04/2023,00:59:25,0.000,0.0,0.0,0.0
10/04/2023,01:00:25,-0.001,0.0,0.0,0.0
10/04/2023,01:01:26,0.000,0.0,0.0,0.0
10/04/2023,01:02:26,-0.001,0.0,0.0,0.0
10/04/2023,01:03:26,0.000,0.0,0.0,0.0
10/04/2023,01:04:26,-0.001,0.0,0.0,0.0
10/04/2023,01:05:26,0.000,0.0,0.0,0.0
10/04/2023,01:06:25,0.000,0.0,0.0,0.0
10/04/2023,01:07:25,-0.001,0.0,0.0,0.0
10/04/2023,01:08:25,0.001,0.0,0.0,0.0
10/04/2023,01:09:26,-0.000,0.0,0.0,0.0
10/04/2023,01:10:26,0.000,0.0,0.0,0.0
10/04/2023,01:11:26,0.000,0.0,0.0,0.0
10/04/2023,01:12:26,0.001,0.0,0.0,0.0
10/04/2023,01:13:25,-0.001,0.0,0.0,0.0
10/04/2023,01:14:26,0.000,0.0,0.0,0.0
10/04/2023,01:15:25,-0.000,0.0,0.0,0.0
10/04/2023,01:16:25,-0.001,0.0,0.0,0.0
10/04/2023,01:17:25,0.001,0.0,0.0,0.0
10/04/2023,01:18:25,0.001,0.0,0.0,0.0
10/04/2023,01:19:26,0.000,0.0,0.0,0.0
10/04/2023,01:20:26,-0.000,0.0,0.0,0.0
10/04/2023,01:21:26,-0.000,0.0,0.0,0.0
10/04/2023,01:22:26,-0.000,0.0,0.0,0.0
10/04/2023,01:23:26,-0.000,0.0,0.0,0.0
10/04/2023,01:24:26,0.000,0.0,0.0,0.0
10/04/2023,01:25:26,-0.001,0.0,0.0,0.0
10/04/2023,01:26:26,-0.000,0.0,0.0,0.0
10/04/2023,01:27:26,-0.000,0.0,0.0,0.0
10/04/2023,01:28:26,-0.000,0.0,0.0,0.0
10/04/2023,01:29:25,-0.001,0.0,0.0,0.0
10/04/2023,01:30:25,-0.000,0.0,0.0,0.0
10/04/2023,01:31:25,-0.000,0.0,0.0,0.0
10/04/2023,01:32:25,-0.000,0.0,0.0,0.0
10/04/2023,01:33:26,-0.000,0.0,0.0,0.0
10/04/2023,01:34:26,0.001,0.0,0.0,0.0
10/04/2023,01:35:26,0.000,0.0,0.0,0.0
10/04/2023,01:36:26,0.001,0.0,0.0,0.0
10/04/2023,01:37:27,0.000,0.0,0.0,0.0
10/04/2023,01:38:27,0.000,0.0,0.0,0.0
10/04/2023,01:39:26,-0.000,0.0,0.0,0.0
10/04/2023,01:40:26,0.000,0.0,0.0,0.0
10/04/2023,01:41:25,-0.000,0.0,0.0,0.0
10/04/2023,01:42:25,-0.000,0.0,0.0,0.0
10/04/2023,01:43:25,0.000,0.0,0.0,0.0
10/04/2023,01:44:26,-0.001,0.0,0.0,0.0
10/04/2023,01:45:26,-0.001,0.0,0.0,0.0
10/04/2023,01:46:26,-0.000,0.0,0.0,0.0
10/04/2023,01:47:26,-0.000,0.0,0.0,0.0
10/04/2023,01:48:26,-0.001,0.0,0.0,0.0
10/04/2023,01:49:25,-0.000,0.0,0.0,0.0
10/04/2023,01:50:25,0.001,0.0,0.0,0.0
10/04/2023,01:51:25,-0.000,0.0,0.0,0.0
10/04/2023,01:52:26,-0.000,0.0,0.0,0.0
10/04/2023,01:53:25,-0.000,0.0,0.0,0.0
10/04/2023,01:54:26,0.000,0.0,0.0,0.0
10/04/2023,01:55:26,-0.001,0.0,0.0,0.0
10/04/2023,01:56:26,0.000,0.0,0.0,0.0
10/04/2023,01:57:26,-0.001,0.0,0.0,0.0
10/04/2023,01:58:26,-0.000,0.0,0.0,0.0
10/04/2023,01:59:26,-0.001,0.0,0.0,0.0
10/04/2023,02:00:25,0.001,0.0,0.0,0.0
10/04/2023,02:01:26,-0.000,0.0,0.0,0.0
10/04/2023,02:02:27,-0.001,0.0,0.0,0.0
10/04/2023,02:03:25,-0.000,0.0,0.0,0.0
10/04/2023,02:04:26,0.000,0.0,0.0,0.0
10/04/2023,02:05:25,-0.001,0.0,0.0,0.0
10/04/2023,02:06:26,-0.001,0.0,0.0,0.0
10/04/2023,02:07:26,-0.000,0.0,0.0,0.0
10/04/2023,02:08:26,0.000,0.0,0.0,0.0
10/04/2023,02:09:26,-0.001,0.0,0.0,0.0
10/04/2023,02:10:26,-0.000,0.0,0.0,0.0
10/04/2023,02:11:26,-0.000,0.0,0.0,0.0
10/04/2023,02:12:26,-0.000,0.0,0.0,0.0
10/04/2023,02:13:26,0.001,0.0,0.0,0.0
10/04/2023,02:14:26,-0.001,0.0,0.0,0.0
10/04/2023,02:15:25,-0.000,0.0,0.0,0.0
10/04/2023,02:16:25,-0.001,0.0,0.0,0.0
10/04/2023,02:17:25,-0.000,0.0,0.0,0.0
10/04/2023,02:18:25,-0.000,0.0,0.0,0.0
10/04/2023,02:19:25,-0.000,0.0,0.0,0.0
10/04/2023,02:20:25,-0.000,0.0,0.0,0.0
10/04/2023,02:21:26,0.001,0.0,0.0,0.0
10/04/2023,02:22:26,-0.000,0.0,0.0,0.0
10/04/2023,02:23:26,-0.000,0.0,0.0,0.0
10/04/2023,02:24:26,0.001,0.0,0.0,0.0
10/04/2023,02:25:26,-0.001,0.0,0.0,0.0
10/04/2023,02:26:26,-0.000,0.0,0.0,0.0
10/04/2023,02:27:26,-0.000,0.0,0.0,0.0
10/04/2023,02:28:26,-0.000,0.0,0.0,0.0
10/04/2023,02:29:26,-0.000,0.0,0.0,0.0
10/04/2023,02:30:26,-0.001,0.0,0.0,0.0
10/04/2023,02:31:26,-0.001,0.0,0.0,0.0
10/04/2023,02:32:26,-0.001,0.0,0.0,0.0
10/04/2023,02:33:25,-0.001,0.0,0.0,0.0
10/04/2023,02:34:25,-0.000,0.0,0.0,0.0
10/04/2023,02:35:26,-0.000,0.0,0.0,0.0
10/04/2023,02:36:26,0.000,0.0,0.0,0.0
10/04/2023,02:37:26,-0.001,0.0,0.0,0.0
10/04/2023,02:38:25,0.001,0.0,0.0,0.0
10/04/2023,02:39:25,-0.001,0.0,0.0,0.0
10/04/2023,02:40:25,0.000,0.0,0.0,0.0
10/04/2023,02:41:26,-0.001,0.0,0.0,0.0
10/04/2023,02:42:26,0.000,0.0,0.0,0.0
10/04/2023,02:43:26,-0.000,0.0,0.0,0.0
10/04/2023,02:44:26,0.001,0.0,0.0,0.0
10/04/2023,02:45:26,-0.000,0.0,0.0,0.0
10/04/2023,02:46:26,-0.001,0.0,0.0,0.0
10/04/2023,02:47:25,-0.000,0.0,0.0,0.0
10/04/2023,02:48:25,0.000,0.0,0.0,0.0
10/04/2023,02:49:26,-0.001,0.0,0.0,0.0
10/04/2023,02:50:25,-0.000,0.0,0.0,0.0
10/04/2023,02:51:26,-0.000,0.0,0.0,0.0
10/04/2023,02:52:26,0.000,0.0,0.0,0.0
10/04/2023,02:53:26,-0.001,0.0,0.0,0.0
10/04/2023,02:54:25,-0.000,0.0,0.0,0.0
10/04/2023,02:55:26,-0.000,0.0,0.0,0.0
10/04/2023,02:56:26,-0.000,0.0,0.0,0.0
10/04/2023,02:57:26,0.000,0.0,0.0,0.0
10/04/2023,02:58:26,-0.001,0.0,0.0,0.0
10/04/2023,02:59:26,-0.000,0.0,0.0,0.0
10/04/2023,03:00:26,0.001,0.0,0.0,0.0
10/04/2023,03:01:26,-0.001,0.0,0.0,0.0
10/04/2023,03:02:26,-0.000,0.0,0.0,0.0
10/04/2023,03:03:26,-0.000,0.0,0.0,0.0
10/04/2023,03:04:25,0.000,0.0,0.0,0.0
10/04/2023,03:05:26,0.000,0.0,0.0,0.0
10/04/2023,03:06:26,-0.001,0.0,0.0,0.0
10/04/2023,03:07:26,0.000,0.0,0.0,0.0
10/04/2023,03:08:26,-0.001,0.0,0.0,0.0
10/04/2023,03:09:26,-0.000,0.0,0.0,0.0
10/04/2023,03:10:26,0.001,0.0,0.0,0.0
10/04/2023,03:11:26,-0.000,0.0,0.0,0.0
10/04/2023,03:12:26,-0.001,0.0,0.0,0.0
10/04/2023,03:13:25,-0.000,0.0,0.0,0.0
10/04/2023,03:14:25,-0.000,0.0,0.0,0.0
10/04/2023,03:15:26,-0.000,0.0,0.0,0.0
10/04/2023,03:16:26,-0.000,0.0,0.0,0.0
10/04/2023,03:17:26,-0.000,0.0,0.0,0.0
10/04/2023,03:18:25,-0.000,0.0,0.0,0.0
10/04/2023,03:19:26,0.000,0.0,0.0,0.0
10/04/2023,03:20:26,-0.000,0.0,0.0,0.0
10/04/2023,03:21:26,-0.001,0.0,0.0,0.0
10/04/2023,03:22:25,-0.000,0.0,0.0,0.0
10/04/2023,03:23:26,-0.001,0.0,0.0,0.0
10/04/2023,03:24:26,-0.001,0.0,0.0,0.0
10/04/2023,03:25:26,-0.001,0.0,0.0,0.0
10/04/2023,03:26:26,-0.001,0.0,0.0,0.0
10/04/2023,03:27:26,-0.001,0.0,0.0,0.0
10/04/2023,03:28:26,-0.001,0.0,0.0,0.0
10/04/2023,03:29:26,-0.000,0.0,0.0,0.0
10/04/2023,03:30:27,-0.001,0.0,0.0,0.0
10/04/2023,03:31:26,-0.001,0.0,0.0,0.0
10/04/2023,03:32:26,0.000,0.0,0.0,0.0
10/04/2023,03:33:26,-0.000,0.0,0.0,0.0
10/04/2023,03:34:26,0.001,0.0,0.0,0.0
10/04/2023,03:35:25,-0.001,0.0,0.0,0.0
10/04/2023,03:36:25,-0.001,0.0,0.0,0.0
10/04/2023,03:37:25,-0.000,0.0,0.0,0.0
10/04/2023,03:38:25,-0.001,0.0,0.0,0.0
10/04/2023,03:39:26,-0.000,0.0,0.0,0.0
10/04/2023,03:40:25,-0.001,0.0,0.0,0.0
10/04/2023,03:41:26,-0.000,0.0,0.0,0.0
10/04/2023,03:42:25,-0.000,0.0,0.0,0.0
10/04/2023,03:43:26,-0.000,0.0,0.0,0.0
10/04/2023,03:44:26,-0.000,0.0,0.0,0.0
10/04/2023,03:45:26,-0.000,0.0,0.0,0.0
10/04/2023,03:46:26,-0.001,0.0,0.0,0.0
10/04/2023,03:47:26,-0.001,0.0,0.0,0.0
10/04/2023,03:48:26,-0.001,0.0,0.0,0.0
10/04/2023,03:49:26,-0.001,0.0,0.0,0.0
10/04/2023,03:50:26,-0.000,0.0,0.0,0.0
10/04/2023,03:51:26,-0.000,0.0,0.0,0.0
10/04/2023,03:52:25,-0.000,0.0,0.0,0.0
10/04/2023,03:53:26,-0.001,0.0,0.0,0.0
10/04/2023,03:54:26,-0.000,0.0,0.0,0.0
10/04/2023,03:55:26,-0.001,0.0,0.0,0.0
10/04/2023,03:56:26,0.001,0.0,0.0,0.0
10/04/2023,03:57:26,-0.000,0.0,0.0,0.0
10/04/2023,03:58:26,-0.001,0.0,0.0,0.0
10/04/2023,03:59:26,-0.000,0.0,0.0,0.0
10/04/2023,04:00:25,-0.001,0.0,0.0,0.0
10/04/2023,04:01:26,-0.000,0.0,0.0,0.0
10/04/2023,04:02:26,0.000,0.0,0.0,0.0
10/04/2023,04:03:26,-0.001,0.0,0.0,0.0
10/04/2023,04:04:31,0.000,0.0,0.0,0.0
10/04/2023,04:05:27,-0.000,0.0,0.0,0.0
10/04/2023,04:06:26,0.000,0.0,0.0,0.0
10/04/2023,04:07:26,-0.001,0.0,0.0,0.0
10/04/2023,04:08:26,-0.002,0.0,0.0,0.0
10/04/2023,04:09:26,-0.001,0.0,0.0,0.0
10/04/2023,04:10:26,-0.001,0.0,0.0,0.0
10/04/2023,04:11:25,-0.000,0.0,0.0,0.0
10/04/2023,04:12:26,-0.000,0.0,0.0,0.0
10/04/2023,04:13:26,-0.000,0.0,0.0,0.0
10/04/2023,04:14:25,-0.000,0.0,0.0,0.0
10/04/2023,04:15:25,-0.000,0.0,0.0,0.0
10/04/2023,04:16:26,-0.000,0.0,0.0,0.0
10/04/2023,04:17:26,-0.001,0.0,0.0,0.0
10/04/2023,04:18:26,-0.000,0.0,0.0,0.0
10/04/2023,04:19:26,-0.001,0.0,0.0,0.0
10/04/2023,04:20:25,-0.000,0.0,0.0,0.0
10/04/2023,04:21:25,-0.000,0.0,0.0,0.0
10/04/2023,04:22:26,-0.001,0.0,0.0,0.0
10/04/2023,04:23:25,-0.001,0.0,0.0,0.0
10/04/2023,04:24:26,-0.001,0.0,0.0,0.0
10/04/2023,04:25:26,-0.000,0.0,0.0,0.0
10/04/2023,04:26:26,-0.001,0.0,0.0,0.0
10/04/2023,04:27:26,-0.001,0.0,0.0,0.0
10/04/2023,04:28:26,-0.001,0.0,0.0,0.0
10/04/2023,04:29:26,-0.000,0.0,0.0,0.0
10/04/2023,04:30:26,0.000,0.0,0.0,0.0
10/04/2023,04:31:26,-0.001,0.0,0.0,0.0
10/04/2023,04:32:26,-0.001,0.0,0.0,0.0
10/04/2023,04:33:26,0.000,0.0,0.0,0.0
10/04/2023,04:34:26,-0.001,0.0,0.0,0.0
10/04/2023,04:35:25,-0.001,0.0,0.0,0.0
10/04/2023,04:36:26,-0.001,0.0,0.0,0.0
10/04/2023,04:37:26,0.000,0.0,0.0,0.0
10/04/2023,04:38:26,-0.001,0.0,0.0,0.0
10/04/2023,04:39:26,-0.001,0.0,0.0,0.0
10/04/2023,04:40:26,-0.001,0.0,0.0,0.0
10/04/2023,04:41:26,-0.001,0.0,0.0,0.0
10/04/2023,04:42:26,-0.001,0.0,0.0,0.0
10/04/2023,04:43:26,-0.001,0.0,0.0,0.0
10/04/2023,04:44:26,-0.001,0.0,0.0,0.0
10/04/2023,04:45:26,-0.001,0.0,0.0,0.0
10/04/2023,04:46:26,-0.001,0.0,0.0,0.0
10/04/2023,04:47:26,-0.001,0.0,0.0,0.0
10/04/2023,04:48:26,-0.001,0.0,0.0,0.0
10/04/2023,04:49:25,-0.001,0.0,0.0,0.0
10/04/2023,04:50:26,-0.001,0.0,0.0,0.0
10/04/2023,04:51:26,-0.001,0.0,0.0,0.0
10/04/2023,04:52:26,-0.001,0.0,0.0,0.0
10/04/2023,04:53:26,-0.001,0.0,0.0,0.0
10/04/2023,04:54:25,-0.001,0.0,0.0,0.0
10/04/2023,04:55:26,-0.001,0.0,0.0,0.0
10/04/2023,04:56:25,-0.000,0.0,0.0,0.0
10/04/2023,04:57:26,-0.001,0.0,0.0,0.0
10/04/2023,04:58:26,-0.001,0.0,0.0,0.0
10/04/2023,04:59:27,-0.001,0.0,0.0,0.0
10/04/2023,05:00:26,-0.001,0.0,0.0,0.0
10/04/2023,05:01:26,0.000,0.0,0.0,0.0
10/04/2023,05:02:26,-0.001,0.0,0.0,0.0
10/04/2023,05:03:26,-0.000,0.0,0.0,0.0
10/04/2023,05:04:26,-0.001,0.0,0.0,0.0
10/04/2023,05:05:26,-0.001,0.0,0.0,0.0
10/04/2023,05:06:26,-0.001,0.0,0.0,0.0
10/04/2023,05:07:28,0.000,0.0,0.0,0.0
10/04/2023,05:08:26,-0.000,0.0,0.0,0.0
10/04/2023,05:09:26,-0.000,0.0,0.0,0.0
10/04/2023,05:10:26,-0.001,0.0,0.0,0.0
10/04/2023,05:11:26,0.000,0.0,0.0,0.0
10/04/2023,05:12:26,-0.001,0.0,0.0,0.0
10/04/2023,05:13:26,-0.000,0.0,0.0,0.0
10/04/2023,05:14:26,-0.000,0.0,0.0,0.0
10/04/2023,05:15:26,0.000,0.0,0.0,0.0
10/04/2023,05:16:26,-0.000,0.0,0.0,0.0
10/04/2023,05:17:26,-0.001,0.0,0.0,0.0
10/04/2023,05:18:26,0.001,0.0,0.0,0.0
10/04/2023,05:19:26,0.001,0.0,0.0,0.0
10/04/2023,05:20:26,0.000,0.0,0.0,0.0
10/04/2023,05:21:26,0.000,0.0,0.0,0.0
10/04/2023,05:22:26,0.001,0.0,0.0,0.0
10/04/2023,05:23:26,0.001,0.0,0.0,0.0
10/04/2023,05:24:25,0.001,0.0,0.0,0.0
10/04/2023,05:25:25,0.001,0.0,0.0,0.0
10/04/2023,05:26:26,0.001,0.0,0.0,0.0
10/04/2023,05:27:26,0.001,0.0,0.0,0.0
10/04/2023,05:28:26,0.001,0.0,0.0,0.0
10/04/2023,05:29:26,0.002,0.0,0.0,0.0
10/04/2023,05:30:26,0.002,0.0,0.0,0.0
10/04/2023,05:31:26,0.002,0.0,0.0,0.0
10/04/2023,05:32:26,0.002,0.0,0.0,0.0
10/04/2023,05:33:26,0.001,0.0,0.0,0.0
10/04/2023,05:34:26,0.002,0.0,0.0,0.0
10/04/2023,05:35:26,0.002,0.0,0.0,0.0
10/04/2023,05:36:26,0.002,0.0,0.0,0.0
10/04/2023,05:37:26,0.002,0.0,0.0,0.0
10/04/2023,05:38:26,0.002,0.0,0.0,0.0
10/04/2023,05:39:26,0.002,0.0,0.0,0.0
10/04/2023,05:40:26,0.003,0.0,0.0,0.0
10/04/2023,05:41:26,0.004,0.0,0.0,0.0
10/04/2023,05:42:30,0.004,0.0,0.0,0.0
10/04/2023,05:43:26,0.003,0.0,0.0,0.0
10/04/2023,05:44:26,0.003,0.0,0.0,0.0
10/04/2023,05:45:26,0.003,0.0,0.0,0.0
10/04/2023,05:46:26,0.002,0.0,0.0,0.0
10/04/2023,05:47:26,0.004,0.0,0.0,0.0
10/04/2023,05:48:26,0.004,0.0,0.0,0.0
10/04/2023,05:49:26,0.005,0.0,0.0,0.0
10/04/2023,05:50:26,0.004,0.0,0.0,0.0
10/04/2023,05:51:26,0.004,0.0,0.0,0.0
10/04/2023,05:52:26,0.004,0.0,0.0,0.0
10/04/2023,05:53:26,0.004,0.0,0.0,0.0
10/04/2023,05:54:26,0.005,0.0,0.0,0.0
10/04/2023,05:55:26,0.005,0.0,0.0,0.0
10/04/2023,05:56:26,0.004,0.0,0.0,0.0
10/04/2023,05:57:26,0.004,0.0,0.0,0.0
10/04/2023,05:58:26,0.004,0.0,0.0,0.0
10/04/2023,05:59:26,0.005,0.0,0.0,0.0
10/04/2023,06:00:26,0.005,0.0,0.0,0.0
10/04/2023,06:01:26,0.005,0.0,0.0,0.0
10/04/2023,06:02:26,0.004,0.0,0.0,0.0
10/04/2023,06:03:26,0.005,0.0,0.0,0.0
10/04/2023,06:04:26,0.005,0.0,0.0,0.0
10/04/2023,06:05:26,0.006,0.0,0.0,0.0
10/04/2023,06:06:26,0.006,0.0,0.0,0.0
10/04/2023,06:07:26,0.007,0.0,0.0,0.0
10/04/2023,06:08:26,0.008,0.0,0.0,0.0
10/04/2023,06:09:26,0.007,0.0,0.0,0.0
10/04/2023,06:10:26,0.007,0.0,0.0,0.0
10/04/2023,06:11:26,0.007,0.0,0.001,0.001
10/04/2023,06:12:26,0.009,0.0,0.001,0.0
10/04/2023,06:13:26,0.007,0.0,0.001,0.0
10/04/2023,06:14:26,0.007,0.0,0.001,0.0
10/04/2023,06:15:26,0.007,0.0,0.001,0.0
10/04/2023,06:16:26,0.008,0.0,0.001,0.0
10/04/2023,06:17:26,0.011,0.0,0.001,0.0
10/04/2023,06:18:26,0.010,0.0,0.002,0.001
10/04/2023,06:19:27,0.010,0.0,0.002,0.0
10/04/2023,06:20:25,0.010,0.0,0.002,0.0
10/04/2023,06:21:26,0.010,0.0,0.002,0.0
10/04/2023,06:22:26,0.011,0.0,0.002,0.0
10/04/2023,06:23:26,0.011,0.0,0.002,0.0
10/04/2023,06:24:27,0.010,0.0,0.003,0.001
10/04/2023,06:25:26,0.011,0.0,0.003,0.0
10/04/2023,06:26:26,0.011,0.0,0.003,0.0
10/04/2023,06:27:26,0.011,0.0,0.003,0.0
10/04/2023,06:28:26,0.011,0.0,0.003,0.0
10/04/2023,06:29:27,0.014,0.0,0.004,0.001
10/04/2023,06:30:26,0.013,0.0,0.004,0.0
10/04/2023,06:31:26,0.013,0.0,0.004,0.0
10/04/2023,06:32:26,0.013,0.0,0.004,0.0
10/04/2023,06:33:26,0.015,0.0,0.004,0.0
10/04/2023,06:34:26,0.015,0.0,0.005,0.001
10/04/2023,06:35:26,0.015,0.0,0.005,0.0
10/04/2023,06:36:26,0.017,0.0,0.005,0.0
10/04/2023,06:37:27,0.016,0.0,0.005,0.0
10/04/2023,06:38:26,0.019,0.0,0.006,0.001
10/04/2023,06:39:27,0.022,0.0,0.006,0.0
10/04/2023,06:40:26,0.021,0.0,0.006,0.0
10/04/2023,06:41:26,0.022,0.0,0.007,0.001
10/04/2023,06:42:26,0.020,0.0,0.007,0.0
10/04/2023,06:43:26,0.022,0.0,0.008,0.001
10/04/2023,06:44:26,0.021,0.0,0.008,0.0
10/04/2023,06:45:26,0.021,0.0,0.008,0.0
10/04/2023,06:46:26,0.021,0.0,0.009,0.001
10/04/2023,06:47:26,0.020,0.0,0.009,0.0
10/04/2023,06:48:26,0.021,0.0,0.009,0.0
10/04/2023,06:49:26,0.022,0.0,0.01,0.001
10/04/2023,06:50:26,0.022,0.0,0.01,0.0
10/04/2023,06:51:26,0.023,0.0,0.01,0.0
10/04/2023,06:52:27,0.023,0.0,0.011,0.001
10/04/2023,06:53:27,0.026,0.0,0.011,0.0
10/04/2023,06:54:26,0.029,0.0,0.012,0.001
10/04/2023,06:55:26,0.028,0.0,0.012,0.0
10/04/2023,06:56:26,0.027,0.0,0.013,0.001
10/04/2023,06:57:26,0.028,0.0,0.013,0.0
10/04/2023,06:58:27,0.028,0.0,0.013,0.0
10/04/2023,06:59:26,0.028,0.0,0.014,0.001
10/04/2023,07:00:26,0.028,0.0,0.014,0.0
10/04/2023,07:01:26,0.026,0.0,0.015,0.001
10/04/2023,07:02:26,0.025,0.0,0.015,0.0
10/04/2023,07:03:26,0.023,0.0,0.016,0.001
10/04/2023,07:04:26,0.024,0.0,0.016,0.0
10/04/2023,07:05:26,0.028,0.0,0.017,0.001
10/04/2023,07:06:26,0.028,0.0,0.017,0.0
10/04/2023,07:07:26,0.027,0.0,0.017,0.0
10/04/2023,07:08:26,0.027,0.0,0.018,0.001
10/04/2023,07:09:27,0.029,0.0,0.018,0.0
10/04/2023,07:10:26,0.027,0.0,0.019,0.001
10/04/2023,07:11:26,0.025,0.0,0.019,0.0
10/04/2023,07:12:27,0.028,0.0,0.02,0.001
10/04/2023,07:13:26,0.027,0.0,0.02,0.0
10/04/2023,07:14:26,0.026,0.0,0.021,0.001
10/04/2023,07:15:26,0.029,0.0,0.021,0.0
10/04/2023,07:16:26,0.029,0.0,0.022,0.001
10/04/2023,07:17:26,0.035,0.0,0.022,0.0
10/04/2023,07:18:26,0.033,0.0,0.023,0.001
10/04/2023,07:19:26,0.035,0.0,0.023,0.0
10/04/2023,07:20:26,0.036,0.0,0.024,0.001
10/04/2023,07:21:26,0.036,0.0,0.024,0.0
10/04/2023,07:22:26,0.041,0.0,0.025,0.001
10/04/2023,07:23:27,0.046,0.0,0.026,0.001
10/04/2023,07:24:26,0.053,0.0,0.027,0.001
10/04/2023,07:25:26,0.053,0.0,0.027,0.0
10/04/2023,07:26:26,0.054,0.0,0.028,0.001
10/04/2023,07:27:26,0.052,0.0,0.029,0.001
10/04/2023,07:28:26,0.050,0.0,0.03,0.001
10/04/2023,07:29:26,0.042,0.0,0.031,0.001
10/04/2023,07:30:26,0.044,0.0,0.032,0.001
10/04/2023,07:31:27,0.046,0.0,0.032,0.0
10/04/2023,07:32:26,0.048,0.0,0.033,0.001
10/04/2023,07:33:27,0.047,0.0,0.034,0.001
10/04/2023,07:34:27,0.047,0.0,0.035,0.001
10/04/2023,07:35:26,0.047,0.0,0.035,0.0
10/04/2023,07:36:26,0.051,0.0,0.036,0.001
10/04/2023,07:37:26,0.047,0.0,0.037,0.001
10/04/2023,07:38:26,0.051,0.0,0.038,0.001
10/04/2023,07:39:26,0.056,0.0,0.039,0.001
10/04/2023,07:40:26,0.059,0.0,0.04,0.001
10/04/2023,07:41:26,0.058,0.0,0.041,0.001
10/04/2023,07:42:26,0.054,0.0,0.042,0.001
10/04/2023,07:43:26,0.061,0.0,0.043,0.001
10/04/2023,07:44:26,0.062,0.0,0.044,0.001
10/04/2023,07:45:26,0.064,0.0,0.045,0.001
10/04/2023,07:46:26,0.072,0.0,0.046,0.001
10/04/2023,07:47:27,0.064,0.0,0.047,0.001
10/04/2023,07:48:26,0.062,0.0,0.048,0.001
10/04/2023,07:49:27,0.063,0.0,0.049,0.001
10/04/2023,07:50:26,0.067,0.0,0.05,0.001
10/04/2023,07:51:26,0.068,0.0,0.051,0.001
10/04/2023,07:52:26,0.072,0.0,0.052,0.001
10/04/2023,07:53:27,0.068,0.0,0.054,0.002
10/04/2023,07:54:26,0.077,0.0,0.055,0.001
10/04/2023,07:55:26,0.079,0.0,0.056,0.001
10/04/2023,07:56:26,0.078,0.0,0.057,0.001
10/04/2023,07:57:26,0.075,0.0,0.059,0.002
10/04/2023,07:58:26,0.074,0.0,0.06,0.001
10/04/2023,07:59:26,0.073,0.0,0.061,0.001
10/04/2023,08:00:26,0.074,0.0,0.062,0.001
10/04/2023,08:01:26,0.074,0.0,0.063,0.001
10/04/2023,08:02:26,0.077,0.0,0.065,0.002
10/04/2023,08:03:26,0.076,0.0,0.066,0.001
10/04/2023,08:04:26,0.085,0.0,0.067,0.001
10/04/2023,08:05:26,0.090,0.0,0.069,0.002
10/04/2023,08:06:26,0.101,0.0,0.07,0.001
10/04/2023,08:07:26,0.102,0.0,0.072,0.002
10/04/2023,08:08:26,0.094,0.0,0.074,0.002
10/04/2023,08:09:26,0.083,0.0,0.075,0.001
10/04/2023,08:10:26,0.092,0.0,0.077,0.002
10/04/2023,08:11:26,0.084,0.0,0.078,0.001
10/04/2023,08:12:26,0.078,0.0,0.079,0.001
10/04/2023,08:13:27,0.090,0.0,0.081,0.002
10/04/2023,08:14:27,0.087,0.0,0.082,0.001
10/04/2023,08:15:26,0.085,0.0,0.084,0.002
10/04/2023,08:16:26,0.107,0.0,0.085,0.001
10/04/2023,08:17:26,0.112,0.0,0.087,0.002
10/04/2023,08:18:26,0.107,0.0,0.089,0.002
10/04/2023,08:19:26,0.100,0.0,0.091,0.002
10/04/2023,08:20:26,0.111,0.0,0.093,0.002
10/04/2023,08:21:27,0.116,0.0,0.094,0.001
10/04/2023,08:22:26,0.112,0.0,0.096,0.002
10/04/2023,08:23:27,0.128,0.0,0.098,0.002
10/04/2023,08:24:26,0.130,0.0,0.1,0.002
10/04/2023,08:25:26,0.113,0.0,0.102,0.002
10/04/2023,08:26:27,0.122,0.0,0.104,0.002
10/04/2023,08:27:27,0.131,0.0,0.107,0.003
10/04/2023,08:28:26,0.124,0.0,0.109,0.002
10/04/2023,08:29:26,0.150,0.0,0.111,0.002
10/04/2023,08:30:26,0.155,0.0,0.113,0.002
10/04/2023,08:31:26,0.147,0.0,0.116,0.003
10/04/2023,08:32:27,0.147,0.0,0.118,0.002
10/04/2023,08:33:26,0.156,0.0,0.121,0.003
10/04/2023,08:34:27,0.162,0.0,0.123,0.002
10/04/2023,08:35:26,0.150,0.0,0.126,0.003
10/04/2023,08:36:27,0.140,0.0,0.128,0.002
10/04/2023,08:37:26,0.151,0.0,0.131,0.003
10/04/2023,08:38:27,0.151,0.0,0.133,0.002
10/04/2023,08:39:27,0.137,0.0,0.136,0.003
10/04/2023,08:40:26,0.131,0.0,0.138,0.002
10/04/2023,08:41:26,0.133,0.0,0.14,0.002
10/04/2023,08:42:26,0.125,0.0,0.142,0.002
10/04/2023,08:43:26,0.114,0.0,0.144,0.002
10/04/2023,08:44:26,0.112,0.0,0.146,0.002
10/04/2023,08:45:26,0.108,0.0,0.148,0.002
10/04/2023,08:46:27,0.104,0.0,0.15,0.002
10/04/2023,08:47:27,0.093,0.0,0.151,0.001
10/04/2023,08:48:27,0.099,0.0,0.153,0.002
10/04/2023,08:49:27,0.105,0.0,0.155,0.002
10/04/2023,08:50:26,0.109,0.0,0.156,0.001
10/04/2023,08:51:27,0.115,0.0,0.158,0.002
10/04/2023,08:52:27,0.110,0.0,0.16,0.002
10/04/2023,08:53:27,0.098,0.0,0.162,0.002
10/04/2023,08:54:27,0.099,0.0,0.164,0.002
10/04/2023,08:55:26,0.090,0.0,0.165,0.001
10/04/2023,08:56:27,0.097,0.0,0.167,0.002
10/04/2023,08:57:27,0.080,0.0,0.168,0.001
10/04/2023,08:58:28,0.090,0.0,0.17,0.002
10/04/2023,08:59:27,0.079,0.0,0.171,0.001
10/04/2023,09:00:25,0.093,0.0,0.172,0.001
10/04/2023,09:01:26,0.101,0.0,0.174,0.002
10/04/2023,09:02:26,0.092,0.0,0.176,0.002
10/04/2023,09:03:26,0.104,0.0,0.177,0.001
10/04/2023,09:04:26,0.106,0.0,0.179,0.002
10/04/2023,09:05:26,0.115,0.0,0.181,0.002
10/04/2023,09:06:26,0.118,0.0,0.183,0.002
10/04/2023,09:07:26,0.088,0.0,0.184,0.001
10/04/2023,09:08:27,0.061,0.0,0.186,0.002
10/04/2023,09:09:27,0.057,0.0,0.187,0.001
10/04/2023,09:10:26,0.056,0.0,0.188,0.001
10/04/2023,09:11:26,0.063,0.0,0.189,0.001
10/04/2023,09:12:27,0.071,0.0,0.19,0.001
10/04/2023,09:13:27,0.077,0.0,0.191,0.001
10/04/2023,09:14:26,0.080,0.0,0.192,0.001
10/04/2023,09:15:27,0.077,0.0,0.193,0.001
10/04/2023,09:16:27,0.085,0.0,0.195,0.002
10/04/2023,09:17:27,0.080,0.0,0.196,0.001
10/04/2023,09:18:27,0.071,0.0,0.197,0.001
10/04/2023,09:19:26,0.068,0.0,0.199,0.002
10/04/2023,09:20:27,0.073,0.0,0.2,0.001
10/04/2023,09:21:27,0.095,0.0,0.201,0.001
10/04/2023,09:22:27,0.111,0.0,0.203,0.002
10/04/2023,09:23:27,0.112,0.0,0.205,0.002
10/04/2023,09:24:26,0.122,0.0,0.207,0.002
10/04/2023,09:25:27,0.126,0.0,0.209,0.002
10/04/2023,09:26:27,0.129,0.0,0.211,0.002
10/04/2023,09:27:26,0.136,0.0,0.213,0.002
10/04/2023,09:28:26,0.147,0.0,0.216,0.003
10/04/2023,09:29:26,0.137,0.0,0.218,0.002
10/04/2023,09:30:26,0.122,0.0,0.22,0.002
10/04/2023,09:31:27,0.128,0.0,0.222,0.002
10/04/2023,09:32:27,0.125,0.0,0.224,0.002
10/04/2023,09:33:26,0.113,0.0,0.226,0.002
10/04/2023,09:34:26,0.096,0.0,0.228,0.002
10/04/2023,09:35:26,0.069,0.0,0.229,0.001
10/04/2023,09:36:26,0.054,0.0,0.23,0.001
10/04/2023,09:37:26,0.045,0.0,0.231,0.001
10/04/2023,09:38:26,0.052,0.0,0.232,0.001
10/04/2023,09:39:26,0.081,0.0,0.233,0.001
10/04/2023,09:40:27,0.088,0.0,0.235,0.002
10/04/2023,09:41:27,0.088,0.0,0.236,0.001
10/04/2023,09:42:26,0.095,0.0,0.238,0.002
10/04/2023,09:43:26,0.102,0.0,0.239,0.001
10/04/2023,09:44:27,0.108,0.0,0.241,0.002
10/04/2023,09:45:26,0.111,0.0,0.243,0.002
10/04/2023,09:46:26,0.123,0.0,0.245,0.002
10/04/2023,09:47:26,0.125,0.0,0.247,0.002
10/04/2023,09:48:26,0.123,0.0,0.249,0.002
10/04/2023,09:49:27,0.132,0.0,0.251,0.002
10/04/2023,09:50:26,0.143,0.0,0.253,0.002
10/04/2023,09:51:26,0.159,0.0,0.256,0.003
10/04/2023,09:52:26,0.179,0.0,0.259,0.003
10/04/2023,09:53:26,0.212,0.0,0.262,0.003
10/04/2023,09:54:27,0.206,0.0,0.265,0.003
10/04/2023,09:55:27,0.209,0.0,0.269,0.004
10/04/2023,09:56:27,0.262,1.0,0.273,0.004
10/04/2023,09:57:26,0.316,1.0,0.278,0.005
10/04/2023,09:58:26,0.341,1.0,0.283,0.005
10/04/2023,09:59:27,0.350,1.0,0.289,0.006
10/04/2023,10:00:27,0.364,1.0,0.295,0.006
10/04/2023,10:01:26,0.374,1.0,0.301,0.006